Wetterdaten am Flugplatz MSG Übersee

alte Datensätze gelöscht
115 aktuelle Wetterdateneinträge gefunden

Datum/Uhrzeit   Windrichtung/Grad    Geschw./kmh    Temp./C°    Luftdruck/mbar    Spannung/Volt   
2026-09-02 00:06 NW/312 1 17 1025 12,33
2026-09-02 00:16 NW/312 0 17 1025 12,38
2026-09-02 00:26 NW/312 2 17 1025 12,40
2026-09-02 00:36 NW/312 1 17 1025 12,43
2026-09-02 00:46 NW/312 5 16 1025 12,29
2026-09-02 00:56 NW/312 3 16 1025 12,35
2026-09-02 01:06 NW/312 0 16 1025 12,39
2026-09-02 01:16 NW/312 1 16 1025 12,45
2026-09-02 01:26 NW/312 1 16 1025 12,13
2026-09-02 01:36 NW/312 0 16 1025 12,30
2026-09-02 01:46 NW/312 0 16 1025 12,33
2026-09-02 01:56 NW/312 0 16 1025 12,36
2026-09-02 02:06 NW/312 0 15 1025 12,39
2026-09-02 02:16 NW/312 1 15 1025 12,27
2026-09-02 02:26 NW/312 1 15 1025 12,32
2026-09-02 02:37 NW/312 1 15 1025 12,35
2026-09-02 02:47 NW/312 3 15 1025 12,43
2026-09-02 02:57 NW/312 3 15 1025 12,27
2026-09-02 03:07 NW/312 2 15 1025 12,30
2026-09-02 03:17 NW/312 2 15 1025 12,33
2026-09-02 03:27 SW/232 7 15 1025 12,36
2026-09-02 03:37 S/180 8 15 1025 12,24
2026-09-02 03:47 NW/298 7 15 1025 12,27
2026-09-02 03:57 NW/308 4 15 1025 12,30
2026-09-02 04:07 NW/310 2 15 1024 12,32
2026-09-02 04:17 NW/310 0 15 1024 12,21
2026-09-02 04:27 NW/310 1 15 1024 12,24
2026-09-02 04:37 NW/309 1 14 1024 12,29
2026-09-02 04:47 NW/309 1 14 1024 12,29
2026-09-02 04:57 W/269 2 14 1024 12,18
2026-09-02 05:07 S/196 1 14 1024 12,23
2026-09-02 05:17 S/188 0 14 1024 12,26
2026-09-02 05:28 S/186 2 14 1024 12,21
2026-09-02 05:38 S/186 5 14 1024 12,26
2026-09-02 05:48 S/187 7 14 1024 12,27
2026-09-02 05:58 SW/213 3 13 1024 12,17
2026-09-02 06:08 SW/218 1 14 1024 12,20
2026-09-02 06:18 SW/219 2 13 1024 12,23
2026-09-02 06:28 S/196 4 14 1024 12,16
2026-09-02 06:38 SW/214 3 14 1024 12,20
2026-09-02 06:48 SW/219 1 14 1024 12,23
2026-09-02 06:58 S/169 3 14 1024 12,13
2026-09-02 07:08 SO/116 2 14 1024 12,20
2026-09-02 07:18 SW/212 5 14 1024 12,23
2026-09-02 07:28 S/182 4 14 1025 12,14
2026-09-02 07:38 SO/154 5 14 1025 12,18
2026-09-02 07:48 SO/153 2 14 1025 12,23
2026-09-02 07:58 SW/214 2 15 1025 12,14
2026-09-02 08:09 SW/228 1 15 1025 12,20
2026-09-02 08:19 SW/230 1 16 1025 12,23
2026-09-02 08:29 SW/221 2 17 1025 12,30
2026-09-02 08:39 S/197 2 18 1025 12,21
2026-09-02 08:49 O/77 2 19 1025 12,33
2026-09-02 08:59 SO/121 3 20 1025 12,33
2026-09-02 09:09 S/161 3 21 1025 12,39
2026-09-02 09:19 SO/151 2 21 1025 12,43
2026-09-02 09:29 S/202 6 22 1025 12,52
2026-09-02 09:39 S/178 9 23 1025 12,64
2026-09-02 09:49 S/163 7 24 1025 12,26
2026-09-02 09:59 S/162 5 25 1025 12,60
2026-09-02 10:09 SO/155 4 25 1025 12,67
2026-09-02 10:20 W/275 4 26 1025 12,71
2026-09-02 10:30 O/90 5 27 1025 12,68
2026-09-02 10:40 NO/62 6 27 1025 12,68
2026-09-02 10:50 NO/60 4 28 1025 12,70
2026-09-02 11:00 NO/65 7 28 1025 12,71
2026-09-02 11:10 NO/29 9 28 1025 12,73
2026-09-02 11:20 NO/27 10 28 1025 12,74
2026-09-02 11:30 N/22 9 28 1025 12,05
2026-09-02 11:40 N/21 10 28 1025 12,21
2026-09-02 11:50 N/4 12 28 1025 12,48
2026-09-02 12:00 N/346 13 28 1025 12,49
2026-09-02 12:10 N/343 14 28 1025 12,54
2026-09-02 12:20 N/357 13 28 1025 12,57
2026-09-02 12:31 N/344 11 28 1025 12,58
2026-09-02 12:41 N/350 10 28 1025 12,60
2026-09-02 12:51 N/349 11 28 1024 12,62
2026-09-02 13:01 N/349 13 28 1024 12,64
2026-09-02 13:11 N/348 12 27 1025 12,65
2026-09-02 13:21 NW/337 10 27 1024 12,07
2026-09-02 13:31 N/355 9 27 1024 12,17
2026-09-02 13:41 NW/335 10 27 1024 12,40
2026-09-02 13:51 N/339 10 28 1024 12,43
2026-09-02 14:01 NO/26 10 28 1024 12,49
2026-09-02 14:11 NO/41 7 28 1024 12,49
2026-09-02 14:21 N/15 9 28 1024 12,52
2026-09-02 14:31 N/360 11 28 1024 12,55
2026-09-02 14:41 NO/25 10 28 1024 12,58
2026-09-02 14:52 NO/40 8 28 1024 12,58
2026-09-02 15:02 NO/50 8 28 1024 12,61
2026-09-02 15:12 NO/31 9 28 1024 12,62
2026-09-02 15:22 NO/45 10 28 1024 12,16
2026-09-02 15:32 NO/55 7 28 1024 12,38
2026-09-02 15:42 NO/28 10 28 1024 12,42
2026-09-02 15:52 N/10 7 28 1024 12,42
2026-09-02 16:02 NO/31 10 28 1024 12,46
2026-09-02 16:12 NO/48 9 28 1024 12,57
2026-09-02 16:22 N/9 8 28 1024 12,51
2026-09-02 16:32 N/357 8 28 1023 12,51
2026-09-02 16:42 N/341 8 29 1023 12,54
2026-09-02 16:52 NW/327 5 28 1023 12,55
2026-09-02 17:02 SO/119 2 28 1023 12,58
2026-09-02 17:12 NO/43 6 28 1023 12,58
2026-09-02 17:23 NO/33 6 28 1023 12,13
2026-09-02 17:33 NO/37 5 28 1023 12,36
2026-09-02 17:43 NO/44 5 28 1023 12,36
2026-09-02 17:53 NO/67 4 28 1023 12,40
2026-09-02 18:03 O/72 2 28 1023 12,42
2026-09-02 18:13 O/74 0 28 1023 12,45
2026-09-02 18:23 O/74 0 28 1023 12,46
2026-09-02 18:33 O/76 3 27 1023 12,49
2026-09-02 18:43 O/77 4 27 1023 12,51
2026-09-02 18:53 O/78 3 27 1023 12,52
2026-09-02 19:03 O/78 2 27 1023 12,55
2026-09-02 19:13 O/78 0 27 1023 12,07